BEIDOU-3 M23 (44542 NORAD) Tracking and Keplerian Element Data

This shows tracking and keplerian element data for the satellite.

Feedback or suggestion? Click here.




ElementValue
Catalog44542
NameBEIDOU-3 M23
Epoch Orbit49
Epoch Day293.15881214
Epoch Year2019
RAAN265.1921
Inclination55.0068
Eccentricity0.0099679
Argument of Perigee175.4401
Mean Anonmoly69.322
Mean Motion1.83275603
Decay Rate3.1E-07
L11 44542U 19061A 19293.15881214 .00000031 00000-0 10000-3 0 9998
L22 44542 55.0068 265.1921 0099679 175.4401 69.3220 1.83275603 493

Live tracking and technical data element details for BEIDOU-3 M23 (NORAD 44542). BEIDOU-3 M23 can be tracked NOW for your location showing map with azimuth and elevation plus other details from your city location.

Track the satellite on the map from your city or location and see movement details for azimuth, elevation, latitude, longitude, range, height, and movement on the map or in text.







IsCatalogInMostPopularTable: catalog: 44542, numindb: 13
Update: records affected: 1



GetName: 44542 BEIDOU-3 M23

Hit Count: updated at: Thu, 14 Nov 2019 06:49:57 GMT